weather.gov     
National Weather Service

Regional Weather Roundup
NWS Homepage
This page is being discontinued on March 12, 2014.
The same data is available at this site. Please update your bookmarks.
Thank you, and we apologize for the inconvenience.
Please send an email to SR-SRH.Webmaster@noaa.gov with any concerns.


Current Version
Previous Version:    01  02  03  04  05  06  07  08  09  10  11  12  13  14  15  16  17  18  19  20  21  22  23  24  25  26  27  28  29  30  
   31  32  33  34  35  36  37  38  39  40  41  42  43  44  45  46  47  48  49  50  51  52  53  54  55  56  57  58  59  60  
[Printable]
010
ASUS44 KOHX 250310
RWROHX
MIDDLE TENNESSEE HOURLY WEATHER ROUNDUP
NATIONAL WEATHER SERVICE NASHVILLE TN
1000 PM CDT THU APR 24 2014

NOTE: "FAIR" INDICATES FEW OR NO CLOUDS BELOW 12,000 FEET WITH
NO SIGNIFICANT WEATHER AND/OR OBSTRUCTIONS TO VISIBILITY.

* THESE REPORTS ARE NOT UNDER NWS QUALITY CONTROL AND MAY NOT
  REPORT WEATHER SUCH AS PRECIPITATION AND FOG.


TNZ005>011-023>034-057-059-062>066-078-080-250400
...NORTHERN MIDDLE TENNESSEE...

CITY           SKY/WX    TMP DP  RH WIND       PRES   REMARKS
BAXTER*          N/A     68  48  49 S2          N/A
BRENTWOOD*       N/A     68  54  60 E1          N/A
CASTALIAN SPRG   N/A     59  50  72 CALM        N/A
CLARKSVILLE    CLOUDY    71  49  45 S9        29.73R
COLUMBIA       PTCLDY    72  57  60 S8        29.72F
CROSSVILLE     PTCLDY    65  43  44 VRB5      29.88F
GALLATIN         N/A     69  51  52 SE7       29.77F
DICKSON        CLOUDY    72  50  46 S7        29.75R
GOODLETTSVILLE   N/A     70  52  52 CALM        N/A
JOELTON*         N/A     72  54  53 NW3         N/A
LAFAYETTE*       N/A     66  45  45 S2          N/A
LIVINGSTON     PTCLDY    67  42  40 S6        29.82F
MONTEREY         N/A     61  48  63 CALM        N/A
NASHVILLE      CLOUDY    71  51  49 S13       29.75F
OLD HICKORY*     N/A     72  55  56 MISG        N/A
PEGRAM*          N/A    N/A N/A N/A S3          N/A
PORTLAND         N/A     70  48  46 S12       29.74F
SMYRNA         MOCLDY    69  52  54 S8        29.77F
SPARTA         CLEAR     68  48  49 S7        29.81F
WHITE BLUFF*     N/A     72  52  49 W2          N/A
$$
TNZ056-058-060-061-075>077-079-093>097-250400
...SOUTHERN MIDDLE TENNESSEE...

CITY           SKY/WX    TMP DP  RH WIND       PRES   REMARKS
BELLEVUE*        N/A     70  55  60 CALM        N/A
CULLEOKA*        N/A     66  52  59 CALM        N/A
EAGLEVILLE*      N/A    N/A N/A N/A SE6         N/A
FAIRVIEW*        N/A     70  54  56 CALM        N/A
FAYETTEVILLE   CLOUDY    68  52  56 S8        29.82F
HOHENWALD*       N/A     68  52  56 SE3         N/A
LEWISBURG      CLOUDY    67  54  63 S6        29.78F
MANCHESTER*      N/A     68  54  60 CALM        N/A
MCMINNVILLE      N/A     70  51  50 S3        29.82F
MOUNT PLEASANT   N/A     72  57  60 CALM        N/A
MURFREESBORO   MOCLDY    70  50  49 S10       29.78F
SHELBYVILLE    MOCLDY    72  54  53 SE6       29.81S
SPRING HILL*     N/A     68  54  60 CALM        N/A
TULLAHOMA      CLEAR     70  48  46 SE5       29.83F
WINCHESTER     MOCLDY    66  52  59 S7        29.83F
$$


...KEY TO REMARKS...
VSB - VISIBILITY IN MILES
WCI - WIND CHILL INDEX
HX  - HEAT INDEX





U.S. Dept. of Commerce
NOAA National Weather Service
1325 East West Highway
Silver Spring, MD 20910
E-mail: w-nws.webmaster@noaa.gov
Page last modified: May 16, 2007
NATIONAL WEATHER SERVICE: for Safety, for Work, for Fun - FOR LIFE